User: anonymous   Login
Location: Mentone
(34.5413°N, 85.5351°W)
Time: 16:20:37
(UTC-06:00)
Language:

Cosmos 2026 Rocket - Orbit

View from above orbital plane
View from above orbital plane
View from above satellite
View from above satellite

Ground track
Ground track

The orbit data is extracted from the following two-line orbital elements,

1 20046U 89042B   17326.57175123 +.00000105 +00000-0 +88708-4 0  9996
2 20046 082.9376 185.1705 0041928 346.2632 013.7381 13.78106813430868
Epoch (UTC): 22 November 2017 13:43:19
Eccentricity: 0.0041928
inclination: 82.9376°
perigee height: 940 km
apogee height: 1001 km
right ascension of ascending node: 185.1705°
argument of perigee: 346.2632°
revolutions per day: 13.78106813
mean anomaly at epoch: 13.7381°
orbit number at epoch: 43086

The dashed part of the orbit path shows where the satellite is in the earth's shadow,  

DLR